SCP
0 0 0 0 0 0 0 0 0 0 0 0 0 0 0 0 0 0 0 0 0 0 0 0 0 0 0 0 0 0 0 0 0 -0 -0 -0 -0 -0 -0 -0 -0 0 0 0
0 0 0 0 0 0 -0 0 0 0 0 0 0 0 0 0 0 0 0 0 0 0 0 0 0 0 0 0 0 0 0 0 0 0 -0 -0 -0 -0 -0 -0 -0 -0 0 0
0 0 0 -0 0 -0 0 0 0 0 0 0 0 0 0 0 0 0 0 0 0 0 0 0 0 0 0 0 0 0 0 0 0 0 -0 -0 -0 -0 -0 -0 -0 -0 -0 -0
0 0 0 0 0 0 0 0 0 0 0 0 0 0 0 0 0 0 0 0 0 0 0 0 0 0 0 0 0 0 0 0 0 0 0 -0 -0 -0 -0 -0 -0 -0 -0 -0
0 0 0 -0 0 0 0 0 0 0 0 0 0 0 0 0 0 0 0 0 0 0 0 0 0 0 0 0 0 0 0 0 0 0 0 0 -0 -0 -0 -0 -0 -0 -0 -0
0 0 0 0 0 0 0 0 0 0 0 0 0 0 0 0 0 0 0 0 0 0 0 0 0 0 0 0 0 0 0 0 0 0 0 0 -0 -0 -0 -0 -0 -0 -0 -0
0 0 0 0 0 0 0 0 0 0 0 0 0 0 0 0 0 0 0 0 0 0 0 0 0 0 0 0 0 0 0 0 0 0 0 0 0 -0 -0 -0 -0 -0 -0 -0
0 0 0 0 0 0 0 0 0 0 0 0 0 0 0 0 0 0 0 0 0 0 0 0 0 0 0 0 0 0 0 0 0 0 0 0 0 0 -0 -0 -0 -0 -0 -0
0 0 0 0 0 0 0 0 0 0 0 0 0 0 0 0 0 0 0 0 0 0 0 0 0 0 0 0 0 0 0 0 0 0 0 0 0 0 -0 -0 -0 -0 -0 -0
0 0 0 0 0 0 0 0 0 0 0 0 0 0 0 0 0 0 0 0 0 0 0 0 0 0 0 0 0 0 0 0 0 0 0 0 0 0 0 -0 -0 -0 -0 -0
0 0 0 0 0 0 0 0 0 0 0 0 0 0 0 0 0 0 0 0 0 0 0 0 0 0 0 0 0 0 0 0 0 0 0 0 0 0 0 -0 -0 -0 -0 -0
0 0 0 0 0 0 0 0 0 0 0 0 0 0 0 0 0 0 0 0 0 0 0 0 0 0 0 0 0 0 0 0 0 0 0 0 0 0 0 0 -0 -0 -0 -0
0 0 0 0 0 0 0 0 0 0 0 0 0 0 0 0 0 0 0 0 0 0 0 0 0 0 0 0 0 0 0 0 0 0 0 0 0 0 0 0 0 0 -0 -0
0 0 0 0 0 0 0 0 0 0 0 0 0 0 0 0 0 0 0 0 0 0 0 0 0 0 0 0 0 0 0 0 0 0 0 0 0 0 0 0 0 0 0 0
0 0 0 0 0 0 0 0 0 0 0 0 0 0 0 0 0 0 0 0 0 0 0 0 0 0 0 0 0 0 0 0 0 0 0 0 0 0 0 0 0 0 0 0
0 0 0 0 0 0 0 0 0 0 0 0 0 0 0 0 0 0 0 0 0 0 0 0 0 0 0 0 0 0 0 0 0 0 0 0 0 0 0 0 0 0 0 -0
0 0 0 0 0 0 0 0 0 0 0 0 0 0 0 0 0 0 0 0 0 0 0 0 0 0 0 0 0 0 0 0 0 0 0 0 0 0 0 0 0 0 0 0
0 0 0 0 0 0 0 0 0 0 0 0 0 0 0 0 0 0 0 0 0 0 0 0 0 0 0 0 0 0 0 0 0 0 0 0 0 0 0 0 0 0 0 0
0 0 0 0 0 0 0 0 0 0 0 0 0 0 0 0 0 0 0 0 0 0 0 0 0 0 0 0 0 0 0 0 0 0 0 0 0 0 0 0 0 0 0 0
0 0 0 0 0 0 0 0 0 0 0 0 0 0 0 0 0 0 0 0 0 0 0 0 0 0 0 0 0 0 0 0 0 0 0 0 0 0 0 0 0 0 0 0
0 0 0 0 0 0 0 0 0 0 0 0 0 0 0 0 0 0 0 0 0 0 0 0 0 0 0 0 0 0 0 0 0 0 0 0 0 0 0 0 0 0 0 0
0 0 0 0 0 0 0 0 0 0 0 0 0 0 0 0 0 0 0 0 0 0 0 0 0 0 0 0 0 0 0 0 0 0 0 0 0 0 0 0 0 0 0 0
0 0 0 0 0 0 0 0 0 0 0 0 0 0 0 0 0 0 0 0 0 0 0 0 0 0 0 0 0 0 0 0 0 0 0 0 0 0 0 0 0 0 0 0
0 0 0 0 0 0 0 0 0 0 0 0 0 0 0 0 0 0 0 0 0 0 0 0 0 0 0 0 0 0 0 0 0 0 0 0 0 0 0 0 0 0 0 0
0 0 0 0 0 0 0 0 0 0 0 0 0 0 0 0 0 0 0 0 0 0 0 0 0 0 0 0 0 0 0 0 0 0 0 0 0 0 0 0 0 0 0 0
0 0 0 0 0 0 0 0 0 0 0 0 0 0 0 0 0 0 0 0 0 0 0 0 0 0 0 0 0 0 0 0 0 0 0 0 0 0 0 0 0 0 0 0
0 0 0 0 0 0 0 0 0 0 0 0 0 0 0 0 0 0 0 0 0 0 0 0 0 0 0 0 0 0 0 0 0 0 0 0 0 0 0 0 0 0 0 0
Wind_Speed_500mb
14 7 11 15 18 27 22 16 11 3 9 11 12 21 26 24 26 23 24 29 35 38 40 41 41 42 43 44 42 44 46 49 51 52 52 53 56 61 55 49 43 51 57 52
16 17 16 23 26 31 37 31 27 26 36 25 28 20 24 23 19 20 24 28 32 33 34 36 37 39 40 41 41 41 44 48 49 53 52 54 61 56 57 51 46 53 57 54
5 5 10 19 24 37 33 30 28 26 14 15 18 24 21 16 15 16 21 25 28 30 31 31 34 36 39 39 39 42 42 46 48 53 53 58 54 57 54 55 51 53 54 52
6 6 6 8 8 19 34 30 29 27 21 26 26 17 11 13 8 14 16 21 24 27 26 27 30 34 35 35 36 39 42 44 48 51 53 52 56 55 52 55 53 53 52 52
5 12 23 28 12 7 15 21 26 27 26 24 17 7 11 12 6 8 12 16 19 22 23 24 27 31 32 34 35 37 42 44 45 50 54 51 57 56 52 53 52 51 51 50
6 6 8 5 9 21 4 10 21 32 21 16 9 9 15 11 5 6 11 15 18 19 19 22 25 30 30 32 36 39 41 43 46 49 61 50 53 52 52 50 50 49 50 51
9 6 15 14 22 20 6 3 5 14 13 13 10 3 16 8 7 6 11 14 16 16 18 20 23 27 29 32 36 38 39 38 40 48 57 46 50 52 51 54 50 54 54 53
12 12 18 22 23 12 6 10 14 11 12 11 7 1 4 2 0 5 11 13 14 15 16 18 22 26 28 31 35 36 37 35 37 49 54 44 47 51 54 55 57 57 60 60
20 11 15 26 15 34 2 11 14 15 14 13 8 10 8 4 3 4 9 11 11 12 15 17 21 23 27 31 34 34 33 34 37 44 52 43 48 47 51 54 58 58 63 64
14 23 33 27 39 14 24 16 14 16 14 12 12 12 10 9 7 6 8 8 8 10 13 16 20 21 24 28 31 32 32 34 36 37 48 41 42 43 46 53 55 63 64 65
17 24 14 21 39 40 32 24 18 17 17 14 15 14 14 13 12 8 4 5 6 9 11 13 17 19 22 27 30 33 30 32 34 33 43 40 40 43 43 44 46 53 57 63
10 27 29 20 19 40 36 36 29 25 20 18 18 17 17 13 14 8 7 6 4 7 9 11 14 17 20 26 30 32 28 30 32 34 37 39 41 43 37 39 41 44 47 54
35 16 15 20 10 14 32 37 34 29 26 23 23 19 18 16 17 16 7 5 5 10 9 11 15 14 20 30 31 36 33 31 30 34 38 43 39 41 47 43 36 39 45 49
45 35 22 19 20 18 20 31 35 32 26 25 26 22 23 20 24 11 9 9 12 13 16 19 22 18 25 35 39 39 32 31 38 28 34 53 50 42 39 43 47 48 44 47
37 44 35 21 25 21 19 25 31 31 31 30 28 28 28 26 22 14 15 14 15 18 20 25 23 25 28 35 37 35 33 40 33 30 30 39 44 51 47 40 40 43 47 46
29 31 32 34 27 31 30 30 32 32 33 33 30 30 29 27 27 19 15 14 15 14 21 25 24 25 28 33 31 31 30 36 31 36 31 33 36 38 45 49 41 41 42 46
35 47 43 45 41 35 38 34 35 34 34 36 34 32 33 31 22 18 14 17 17 16 18 22 21 22 27 28 31 34 26 35 29 26 28 32 32 31 35 40 40 42 40 40
35 37 44 47 45 40 38 38 37 35 36 37 36 39 39 26 16 14 11 14 17 20 20 21 22 23 26 25 28 30 18 28 23 24 27 31 28 31 27 35 39 37 40 41
35 34 36 42 42 40 40 39 37 34 35 41 44 45 33 20 18 15 14 14 14 19 19 18 20 20 17 25 24 24 18 27 25 23 25 25 25 25 26 31 33 33 35 35
38 38 36 38 37 40 40 38 35 38 38 39 40 37 29 23 19 18 19 19 20 20 18 22 22 21 16 25 28 22 21 30 26 25 25 25 25 25 25 27 30 31 33 33
44 41 38 38 39 38 38 40 43 42 42 37 34 31 23 19 18 19 23 25 23 25 21 23 22 21 12 23 23 16 29 25 26 26 25 26 25 24 24 26 28 27 31 34
44 41 40 44 45 44 39 36 33 28 27 29 29 27 24 22 20 21 24 27 28 31 30 25 26 22 21 22 22 26 24 24 24 25 26 26 26 25 24 25 30 29 31 35
41 42 45 49 43 39 34 30 27 26 25 25 24 23 20 20 23 25 26 22 25 33 34 30 28 21 22 25 27 28 25 23 21 23 25 26 26 26 26 27 30 32 35 35
42 42 45 44 35 32 29 29 27 25 24 22 21 21 23 25 27 28 30 31 30 30 29 32 29 27 29 29 26 27 24 21 20 21 23 24 24 25 26 28 30 32 32 34
42 38 41 46 36 27 28 29 30 28 26 26 26 27 27 29 30 27 30 32 27 26 31 31 29 29 30 28 26 26 22 20 19 20 21 22 22 23 25 28 30 31 33 34
41 43 43 44 39 34 35 30 30 29 27 26 26 29 26 24 27 30 30 30 27 29 29 26 27 28 28 27 26 24 21 21 20 20 20 21 21 22 23 26 28 29 30 32
38 39 41 41 37 37 41 39 37 31 28 27 26 25 24 19 23 28 30 27 25 27 28 26 27 27 26 26 26 25 22 22 21 20 21 21 21 20 21 23 25 27 28 30
Wind_Direction_500mb
254 262 224 183 213 199 202 222 220 175 256 261 239 258 260 276 291 323 340 345 352 353 353 352 350 348 349 349 349 350 350 351 353 353 352 352 343 336 347 3 4 1 356 350
241 250 242 253 234 223 218 214 244 266 277 262 272 267 270 285 313 341 345 351 351 348 351 352 352 350 347 350 348 350 351 353 352 351 347 345 338 345 3 8 8 3 358 358
251 144 348 293 243 240 232 216 217 244 249 251 274 264 273 303 315 352 347 352 350 350 352 353 351 346 348 350 347 353 351 352 351 347 344 336 348 360 4 8 9 3 359 357
268 117 250 225 212 227 232 236 215 228 238 252 259 283 294 293 37 356 354 350 348 349 351 353 347 348 351 349 348 351 351 349 353 344 343 347 357 1 5 5 6 3 0 0
216 224 282 284 206 199 189 238 241 243 240 232 252 276 264 97 65 13 356 353 351 349 351 350 348 347 353 350 348 353 352 350 353 343 348 353 358 2 4 2 2 2 3 5
178 239 257 100 92 164 101 270 236 234 218 226 214 260 108 104 97 24 354 350 348 349 350 351 347 350 354 350 352 353 352 351 349 339 349 354 0 2 2 1 360 2 8 9
205 273 285 280 138 144 194 65 130 170 183 182 217 51 96 96 108 14 351 347 345 350 352 346 348 350 353 352 354 349 350 349 352 335 348 358 359 3 4 3 4 5 9 10
203 210 252 214 142 201 139 127 164 174 180 192 210 239 122 175 311 326 338 337 340 346 340 343 349 351 351 353 350 350 346 356 351 336 347 360 4 3 6 4 3 4 4 6
196 208 237 185 188 212 193 184 191 192 194 181 209 220 192 186 183 302 329 337 335 333 334 344 344 352 348 350 349 346 354 357 343 339 344 4 4 4 4 1 4 5 2 2
184 231 235 214 218 216 215 219 204 202 202 189 207 207 195 199 212 260 322 315 333 332 334 341 343 348 348 348 347 350 357 353 340 352 339 1 5 9 1 359 4 5 4 0
237 240 248 245 221 226 224 219 216 206 204 210 207 210 209 209 209 232 281 303 320 335 332 333 344 345 347 347 348 352 356 345 337 353 335 358 1 4 1 2 3 2 1 1
216 222 221 225 227 221 224 219 215 215 212 219 219 217 198 207 199 214 240 259 299 317 323 332 338 346 346 346 352 339 350 331 352 341 349 357 358 357 7 6 7 5 2 1
218 228 218 219 196 212 220 220 213 213 221 223 209 215 199 203 209 213 228 244 290 291 317 314 329 346 336 340 343 338 343 352 358 349 3 356 359 1 356 0 10 4 2 359
222 230 216 215 222 225 231 219 217 217 217 215 207 203 203 196 210 215 218 236 271 302 297 324 333 333 326 344 343 347 354 359 358 13 351 358 2 2 357 1 358 358 2 358
222 220 233 217 215 215 208 201 204 207 211 201 199 199 203 194 222 212 232 279 301 317 321 327 333 333 337 344 345 351 7 1 22 19 7 353 349 347 357 2 1 355 355 357
210 214 214 212 213 210 205 208 213 208 204 195 196 198 204 207 224 243 263 283 303 293 307 316 323 329 339 342 353 6 348 357 15 10 357 341 344 350 350 354 357 353 355 350
223 197 207 213 215 212 212 210 208 204 202 198 199 199 202 219 230 246 265 294 312 318 320 322 320 332 339 340 352 355 335 352 7 350 341 337 346 349 344 344 347 346 349 355
217 218 217 213 209 208 204 203 203 203 207 198 198 200 212 228 240 248 263 298 314 323 323 320 318 326 333 344 337 335 355 335 350 342 336 338 357 339 349 342 344 350 354 359
210 213 212 207 206 204 200 199 202 205 207 200 202 212 226 227 236 247 260 297 309 317 319 328 332 326 336 320 336 344 340 327 342 343 342 352 342 355 353 344 347 348 350 353
205 209 204 201 201 201 197 198 198 205 206 209 215 216 216 224 236 247 259 275 295 312 294 316 324 325 323 312 332 344 316 329 342 348 342 351 350 356 352 347 347 350 350 351
194 199 197 197 196 196 198 198 199 206 212 219 213 212 217 222 234 251 262 274 293 293 293 302 312 316 270 293 323 297 309 324 333 339 340 347 350 353 353 349 349 354 351 348
189 192 194 192 192 191 192 200 206 210 208 205 200 201 212 224 239 259 272 275 272 276 286 294 303 319 314 305 304 306 310 315 328 335 342 346 350 352 354 353 354 355 351 352
183 190 190 194 194 189 192 203 204 202 199 198 207 217 227 243 254 263 277 283 270 273 275 272 286 297 303 302 300 309 309 315 326 335 342 345 348 351 354 354 357 355 353 357
178 182 189 188 181 189 197 202 199 193 193 203 210 219 233 246 258 270 277 277 279 277 273 268 276 286 293 297 295 305 305 313 322 331 337 340 344 347 351 355 357 358 358 359
177 179 183 176 179 184 183 185 189 197 205 214 226 234 246 254 262 267 271 277 281 271 265 264 270 283 289 287 289 301 302 305 314 323 329 333 339 343 346 352 356 358 1 3
174 176 183 177 188 180 176 186 194 200 207 218 229 241 243 243 252 263 271 277 273 268 264 257 267 284 286 278 285 297 295 295 306 313 321 326 331 336 342 348 352 357 359 0
180 180 175 176 177 181 183 190 199 202 210 214 230 244 255 259 261 266 273 273 266 259 260 264 273 284 281 275 282 290 287 288 297 305 312 318 322 327 334 341 346 350 354 358
Wind_Speed_850mb
14 7 11 15 18 27 22 16 11 3 9 11 12 21 26 24 26 23 24 29 35 38 40 41 41 42 43 44 42 44 46 49 51 52 52 53 56 61 55 49 43 51 57 52
16 17 16 23 26 31 37 31 27 26 36 25 28 20 24 23 19 20 24 28 32 33 34 36 37 39 40 41 41 41 44 48 49 53 52 54 61 56 57 51 46 53 57 54
5 5 10 19 24 37 33 30 28 26 14 15 18 24 21 16 15 16 21 25 28 30 31 31 34 36 39 39 39 42 42 46 48 53 53 58 54 57 54 55 51 53 54 52
6 6 6 8 8 19 34 30 29 27 21 26 26 17 11 13 8 14 16 21 24 27 26 27 30 34 35 35 36 39 42 44 48 51 53 52 56 55 52 55 53 53 52 52
5 12 23 28 12 7 15 21 26 27 26 24 17 7 11 12 6 8 12 16 19 22 23 24 27 31 32 34 35 37 42 44 45 50 54 51 57 56 52 53 52 51 51 50
6 6 8 5 9 21 4 10 21 32 21 16 9 9 15 11 5 6 11 15 18 19 19 22 25 30 30 32 36 39 41 43 46 49 61 50 53 52 52 50 50 49 50 51
9 6 15 14 22 20 6 3 5 14 13 13 10 3 16 8 7 6 11 14 16 16 18 20 23 27 29 32 36 38 39 38 40 48 57 46 50 52 51 54 50 54 54 53
12 12 18 22 23 12 6 10 14 11 12 11 7 1 4 2 0 5 11 13 14 15 16 18 22 26 28 31 35 36 37 35 37 49 54 44 47 51 54 55 57 57 60 60
20 11 15 26 15 34 2 11 14 15 14 13 8 10 8 4 3 4 9 11 11 12 15 17 21 23 27 31 34 34 33 34 37 44 52 43 48 47 51 54 58 58 63 64
14 23 33 27 39 14 24 16 14 16 14 12 12 12 10 9 7 6 8 8 8 10 13 16 20 21 24 28 31 32 32 34 36 37 48 41 42 43 46 53 55 63 64 65
17 24 14 21 39 40 32 24 18 17 17 14 15 14 14 13 12 8 4 5 6 9 11 13 17 19 22 27 30 33 30 32 34 33 43 40 40 43 43 44 46 53 57 63
10 27 29 20 19 40 36 36 29 25 20 18 18 17 17 13 14 8 7 6 4 7 9 11 14 17 20 26 30 32 28 30 32 34 37 39 41 43 37 39 41 44 47 54
35 16 15 20 10 14 32 37 34 29 26 23 23 19 18 16 17 16 7 5 5 10 9 11 15 14 20 30 31 36 33 31 30 34 38 43 39 41 47 43 36 39 45 49
45 35 22 19 20 18 20 31 35 32 26 25 26 22 23 20 24 11 9 9 12 13 16 19 22 18 25 35 39 39 32 31 38 28 34 53 50 42 39 43 47 48 44 47
37 44 35 21 25 21 19 25 31 31 31 30 28 28 28 26 22 14 15 14 15 18 20 25 23 25 28 35 37 35 33 40 33 30 30 39 44 51 47 40 40 43 47 46
29 31 32 34 27 31 30 30 32 32 33 33 30 30 29 27 27 19 15 14 15 14 21 25 24 25 28 33 31 31 30 36 31 36 31 33 36 38 45 49 41 41 42 46
35 47 43 45 41 35 38 34 35 34 34 36 34 32 33 31 22 18 14 17 17 16 18 22 21 22 27 28 31 34 26 35 29 26 28 32 32 31 35 40 40 42 40 40
35 37 44 47 45 40 38 38 37 35 36 37 36 39 39 26 16 14 11 14 17 20 20 21 22 23 26 25 28 30 18 28 23 24 27 31 28 31 27 35 39 37 40 41
35 34 36 42 42 40 40 39 37 34 35 41 44 45 33 20 18 15 14 14 14 19 19 18 20 20 17 25 24 24 18 27 25 23 25 25 25 25 26 31 33 33 35 35
38 38 36 38 37 40 40 38 35 38 38 39 40 37 29 23 19 18 19 19 20 20 18 22 22 21 16 25 28 22 21 30 26 25 25 25 25 25 25 27 30 31 33 33
44 41 38 38 39 38 38 40 43 42 42 37 34 31 23 19 18 19 23 25 23 25 21 23 22 21 12 23 23 16 29 25 26 26 25 26 25 24 24 26 28 27 31 34
44 41 40 44 45 44 39 36 33 28 27 29 29 27 24 22 20 21 24 27 28 31 30 25 26 22 21 22 22 26 24 24 24 25 26 26 26 25 24 25 30 29 31 35
41 42 45 49 43 39 34 30 27 26 25 25 24 23 20 20 23 25 26 22 25 33 34 30 28 21 22 25 27 28 25 23 21 23 25 26 26 26 26 27 30 32 35 35
42 42 45 44 35 32 29 29 27 25 24 22 21 21 23 25 27 28 30 31 30 30 29 32 29 27 29 29 26 27 24 21 20 21 23 24 24 25 26 28 30 32 32 34
42 38 41 46 36 27 28 29 30 28 26 26 26 27 27 29 30 27 30 32 27 26 31 31 29 29 30 28 26 26 22 20 19 20 21 22 22 23 25 28 30 31 33 34
41 43 43 44 39 34 35 30 30 29 27 26 26 29 26 24 27 30 30 30 27 29 29 26 27 28 28 27 26 24 21 21 20 20 20 21 21 22 23 26 28 29 30 32
38 39 41 41 37 37 41 39 37 31 28 27 26 25 24 19 23 28 30 27 25 27 28 26 27 27 26 26 26 25 22 22 21 20 21 21 21 20 21 23 25 27 28 30
Wind_Direction_850mb
254 262 224 183 213 199 202 222 220 175 256 261 239 258 260 276 291 323 340 345 352 353 353 352 350 348 349 349 349 350 350 351 353 353 352 352 343 336 347 3 4 1 356 350
241 250 242 253 234 223 218 214 244 266 277 262 272 267 270 285 313 341 345 351 351 348 351 352 352 350 347 350 348 350 351 353 352 351 347 345 338 345 3 8 8 3 358 358
251 144 348 293 243 240 232 216 217 244 249 251 274 264 273 303 315 352 347 352 350 350 352 353 351 346 348 350 347 353 351 352 351 347 344 336 348 360 4 8 9 3 359 357
268 117 250 225 212 227 232 236 215 228 238 252 259 283 294 293 37 356 354 350 348 349 351 353 347 348 351 349 348 351 351 349 353 344 343 347 357 1 5 5 6 3 0 0
216 224 282 284 206 199 189 238 241 243 240 232 252 276 264 97 65 13 356 353 351 349 351 350 348 347 353 350 348 353 352 350 353 343 348 353 358 2 4 2 2 2 3 5
178 239 257 100 92 164 101 270 236 234 218 226 214 260 108 104 97 24 354 350 348 349 350 351 347 350 354 350 352 353 352 351 349 339 349 354 0 2 2 1 360 2 8 9
205 273 285 280 138 144 194 65 130 170 183 182 217 51 96 96 108 14 351 347 345 350 352 346 348 350 353 352 354 349 350 349 352 335 348 358 359 3 4 3 4 5 9 10
203 210 252 214 142 201 139 127 164 174 180 192 210 239 122 175 311 326 338 337 340 346 340 343 349 351 351 353 350 350 346 356 351 336 347 360 4 3 6 4 3 4 4 6
196 208 237 185 188 212 193 184 191 192 194 181 209 220 192 186 183 302 329 337 335 333 334 344 344 352 348 350 349 346 354 357 343 339 344 4 4 4 4 1 4 5 2 2
184 231 235 214 218 216 215 219 204 202 202 189 207 207 195 199 212 260 322 315 333 332 334 341 343 348 348 348 347 350 357 353 340 352 339 1 5 9 1 359 4 5 4 0
237 240 248 245 221 226 224 219 216 206 204 210 207 210 209 209 209 232 281 303 320 335 332 333 344 345 347 347 348 352 356 345 337 353 335 358 1 4 1 2 3 2 1 1
216 222 221 225 227 221 224 219 215 215 212 219 219 217 198 207 199 214 240 259 299 317 323 332 338 346 346 346 352 339 350 331 352 341 349 357 358 357 7 6 7 5 2 1
218 228 218 219 196 212 220 220 213 213 221 223 209 215 199 203 209 213 228 244 290 291 317 314 329 346 336 340 343 338 343 352 358 349 3 356 359 1 356 0 10 4 2 359
222 230 216 215 222 225 231 219 217 217 217 215 207 203 203 196 210 215 218 236 271 302 297 324 333 333 326 344 343 347 354 359 358 13 351 358 2 2 357 1 358 358 2 358
222 220 233 217 215 215 208 201 204 207 211 201 199 199 203 194 222 212 232 279 301 317 321 327 333 333 337 344 345 351 7 1 22 19 7 353 349 347 357 2 1 355 355 357
210 214 214 212 213 210 205 208 213 208 204 195 196 198 204 207 224 243 263 283 303 293 307 316 323 329 339 342 353 6 348 357 15 10 357 341 344 350 350 354 357 353 355 350
223 197 207 213 215 212 212 210 208 204 202 198 199 199 202 219 230 246 265 294 312 318 320 322 320 332 339 340 352 355 335 352 7 350 341 337 346 349 344 344 347 346 349 355
217 218 217 213 209 208 204 203 203 203 207 198 198 200 212 228 240 248 263 298 314 323 323 320 318 326 333 344 337 335 355 335 350 342 336 338 357 339 349 342 344 350 354 359
210 213 212 207 206 204 200 199 202 205 207 200 202 212 226 227 236 247 260 297 309 317 319 328 332 326 336 320 336 344 340 327 342 343 342 352 342 355 353 344 347 348 350 353
205 209 204 201 201 201 197 198 198 205 206 209 215 216 216 224 236 247 259 275 295 312 294 316 324 325 323 312 332 344 316 329 342 348 342 351 350 356 352 347 347 350 350 351
194 199 197 197 196 196 198 198 199 206 212 219 213 212 217 222 234 251 262 274 293 293 293 302 312 316 270 293 323 297 309 324 333 339 340 347 350 353 353 349 349 354 351 348
189 192 194 192 192 191 192 200 206 210 208 205 200 201 212 224 239 259 272 275 272 276 286 294 303 319 314 305 304 306 310 315 328 335 342 346 350 352 354 353 354 355 351 352
183 190 190 194 194 189 192 203 204 202 199 198 207 217 227 243 254 263 277 283 270 273 275 272 286 297 303 302 300 309 309 315 326 335 342 345 348 351 354 354 357 355 353 357
178 182 189 188 181 189 197 202 199 193 193 203 210 219 233 246 258 270 277 277 279 277 273 268 276 286 293 297 295 305 305 313 322 331 337 340 344 347 351 355 357 358 358 359
177 179 183 176 179 184 183 185 189 197 205 214 226 234 246 254 262 267 271 277 281 271 265 264 270 283 289 287 289 301 302 305 314 323 329 333 339 343 346 352 356 358 1 3
174 176 183 177 188 180 176 186 194 200 207 218 229 241 243 243 252 263 271 277 273 268 264 257 267 284 286 278 285 297 295 295 306 313 321 326 331 336 342 348 352 357 359 0
180 180 175 176 177 181 183 190 199 202 210 214 230 244 255 259 261 266 273 273 266 259 260 264 273 284 281 275 282 290 287 288 297 305 312 318 322 327 334 341 346 350 354 358